Date String (YYYY-MM-DD hh:mm:ss) UTC,Instrument flags,Ambient pressure (hPa),Sample flow (lpm),Bypass flow (lpm),Sample temperature (°C),Ambient temperature (°C),ASC tube jacket temperature (°C),LED temperature (°C),Box temperature (°C),Sample RH (%),Span deviation,Mass concentration (μg/m³),Mass concentration (μg/m³),Mass concentration (μg/m³)
DateTimeUTC,F1_M11,P_M11,Q1_M11,Q2_M11,T1_M11,T2_M11,T3_M11,T4_M11,T5_M11,U1_M11,ZSPAN_M11,X0_M11,X2_M11,X1_M11
2022-10-15 18:00:00,,0829.2,4.99,0.00,30.0,28.9,00.0,38.7,31.8,14.2,0000.0,0009.51,0005.08,0004.52
2022-10-15 18:01:00,,0829.2,4.99,0.00,30.0,28.9,00.0,38.7,31.8,14.2,0000.0,0009.19,0005.06,0004.51
2022-10-15 18:02:00,,0829.2,5.00,0.00,30.0,28.9,00.0,38.7,31.9,14.0,0000.0,0009.15,0005.05,0004.50
2022-10-15 18:03:00,,0829.2,5.00,0.00,30.0,28.9,00.0,38.7,31.9,14.0,0000.0,0009.16,0005.05,0004.49
2022-10-15 18:04:00,,0829.2,5.00,0.00,30.0,28.9,00.0,38.8,31.9,14.0,0000.0,0009.14,0005.03,0004.48
2022-10-15 18:05:00,,0829.3,5.01,0.00,30.0,28.9,00.0,38.8,31.9,14.0,0000.0,0009.43,0005.04,0004.48
2022-10-15 18:06:00,,0829.3,5.01,0.00,30.0,28.9,00.0,38.8,31.9,14.0,0000.0,0009.21,0005.01,0004.49
2022-10-15 18:07:00,,0829.3,5.00,0.00,30.0,28.9,00.0,38.8,31.9,14.0,0000.0,0008.98,0005.02,0004.49
2022-10-15 18:08:00,,0829.2,5.00,0.00,30.1,28.9,00.0,38.8,31.9,14.1,0000.0,0009.55,0005.02,0004.48
2022-10-15 18:09:00,,0829.3,4.99,0.00,30.1,28.9,00.0,38.8,31.9,14.0,0000.0,0009.59,0005.02,0004.46
2022-10-15 18:10:00,,0829.3,4.99,0.00,30.1,28.9,00.0,38.9,31.9,13.9,0000.0,0009.38,0005.00,0004.45
2022-10-15 18:11:00,,0829.3,5.00,0.00,30.1,28.9,00.0,38.9,31.9,13.9,0000.0,0009.38,0004.99,0004.43
2022-10-15 18:12:00,,0829.3,5.00,0.00,30.1,28.9,00.0,38.9,31.9,13.9,0000.0,0009.35,0004.98,0004.43
2022-10-15 18:13:00,,0829.2,5.01,0.00,30.1,28.9,00.0,38.9,32.0,14.0,0000.0,0009.32,0004.98,0004.43
2022-10-15 18:14:00,,0829.3,5.01,0.00,30.1,28.9,00.0,38.9,32.0,13.9,0000.0,0009.33,0004.98,0004.43
2022-10-15 18:15:00,,0829.3,4.99,0.00,30.1,28.9,00.0,38.9,32.0,13.7,0000.0,0009.51,0004.95,0004.43
2022-10-15 18:16:00,,0829.2,5.00,0.00,30.1,29.0,00.0,38.9,32.0,13.7,0000.0,0009.46,0004.94,0004.41
2022-10-15 18:17:00,,0829.3,4.99,0.00,30.2,29.0,00.0,38.9,32.0,13.9,0000.0,0010.21,0004.91,0004.40
2022-10-15 18:18:00,,0829.3,4.99,0.00,30.2,29.0,00.0,38.9,32.0,13.8,0000.0,0010.63,0004.88,0004.40
2022-10-15 18:19:00,,0829.3,5.00,0.00,30.2,29.0,00.0,39.0,32.0,13.8,0000.0,0010.28,0004.88,0004.42
2022-10-15 18:20:00,,0829.2,5.00,0.00,30.2,29.0,00.0,39.0,32.0,13.6,0000.0,0010.25,0004.85,0004.41
2022-10-15 18:21:00,,0829.3,5.01,0.00,30.2,29.0,00.0,39.0,32.0,13.7,0000.0,0010.07,0004.81,0004.40
2022-10-15 18:22:00,,0829.2,5.00,0.00,30.2,29.0,00.0,39.0,32.0,13.7,0000.0,0010.06,0004.83,0004.41
2022-10-15 18:23:00,,0829.2,4.99,0.00,30.2,29.0,00.0,39.0,32.0,13.7,0000.0,0010.12,0004.84,0004.42
2022-10-15 18:24:00,,0829.2,4.99,0.00,30.2,29.1,00.0,39.0,32.0,13.7,0000.0,0010.09,0004.81,0004.41
2022-10-15 18:25:00,,0829.3,5.01,0.00,30.2,29.1,00.0,39.0,32.1,13.7,0000.0,0010.01,0004.78,0004.40
2022-10-15 18:26:00,,0829.2,5.01,0.00,30.3,29.1,00.0,39.0,32.1,13.6,0000.0,0009.71,0004.77,0004.39
2022-10-15 18:27:00,,0829.2,4.99,0.00,30.3,29.1,00.0,39.1,32.1,13.6,0000.0,0009.56,0004.76,0004.41
2022-10-15 18:28:00,,0829.3,4.99,0.00,30.3,29.2,00.0,39.1,32.1,13.7,0000.0,0009.10,0004.78,0004.43
2022-10-15 18:29:00,,0829.2,5.00,0.00,30.3,29.2,00.0,39.1,32.1,13.6,0000.0,0009.27,0004.78,0004.42
2022-10-15 18:30:00,,0829.2,5.01,0.00,30.3,29.2,00.0,39.1,32.1,13.6,0000.0,0008.82,0004.75,0004.40
2022-10-15 18:31:00,,0829.2,5.00,0.00,30.3,29.2,00.0,39.1,32.2,13.7,0000.0,0008.66,0004.77,0004.41
2022-10-15 18:32:00,,0829.3,5.00,0.00,30.4,29.3,00.0,39.1,32.2,13.5,0000.0,0008.81,0004.78,0004.42
2022-10-15 18:33:00,,0829.2,5.00,0.00,30.4,29.3,00.0,39.1,32.2,13.5,0000.0,0008.90,0004.73,0004.40
2022-10-15 18:34:00,,0829.3,5.00,0.00,30.4,29.3,00.0,39.2,32.2,13.5,0000.0,0009.38,0004.71,0004.38
2022-10-15 18:35:00,,0829.2,5.00,0.00,30.4,29.3,00.0,39.2,32.2,13.5,0000.0,0009.56,0004.74,0004.38
2022-10-15 18:36:00,,0829.3,5.00,0.00,30.4,29.3,00.0,39.2,32.2,13.5,0000.0,0010.19,0004.79,0004.38
2022-10-15 18:37:00,,0829.2,5.00,0.00,30.4,29.3,00.0,39.2,32.3,13.6,0000.0,0010.58,0004.81,0004.38
2022-10-15 18:38:00,,0829.2,5.00,0.00,30.5,29.3,00.0,39.2,32.3,13.6,0000.0,0010.58,0004.82,0004.39
2022-10-15 18:39:00,,0829.3,5.00,0.00,30.5,29.4,00.0,39.2,32.3,13.5,0000.0,0010.55,0004.82,0004.38
2022-10-15 18:40:00,,0829.2,5.01,0.00,30.5,29.4,00.0,39.2,32.3,13.4,0000.0,0009.77,0004.84,0004.38
2022-10-15 18:41:00,,0829.2,5.00,0.00,30.5,29.4,00.0,39.3,32.3,13.4,0000.0,0009.80,0004.85,0004.39
2022-10-15 18:42:00,,0829.2,5.00,0.00,30.5,29.4,00.0,39.3,32.3,13.5,0000.0,0009.76,0004.84,0004.38
2022-10-15 18:43:00,,0829.2,5.00,0.00,30.5,29.4,00.0,39.3,32.3,13.6,0000.0,0010.09,0004.86,0004.39
2022-10-15 18:44:00,,0829.1,5.00,0.00,30.5,29.4,00.0,39.3,32.3,13.6,0000.0,0011.32,0004.89,0004.40
2022-10-15 18:45:00,,0829.1,4.99,0.00,30.6,29.5,00.0,39.3,32.4,13.6,0000.0,0011.30,0004.89,0004.41
2022-10-15 18:46:00,,0829.1,4.99,0.00,30.6,29.5,00.0,39.3,32.4,13.6,0000.0,0011.21,0004.87,0004.39
2022-10-15 18:47:00,,0829.0,5.00,0.00,30.6,29.5,00.0,39.4,32.4,13.5,0000.0,0010.67,0004.82,0004.37
2022-10-15 18:48:00,,0829.1,5.00,0.00,30.6,29.4,00.0,39.4,32.4,13.6,0000.0,0010.37,0004.83,0004.36
2022-10-15 18:49:00,,0829.1,5.01,0.00,30.6,28.4,00.0,39.3,32.4,13.5,0000.0,0010.72,0004.84,0004.35
2022-10-15 18:50:00,,0829.1,5.00,0.00,30.6,27.1,00.0,39.3,32.2,13.5,0000.0,0011.02,0004.86,0004.35
2022-10-15 18:51:00,,0829.0,5.00,0.00,30.5,26.9,00.0,39.2,32.1,13.4,0000.0,0011.01,0004.82,0004.33
2022-10-15 18:52:00,,0829.0,5.01,0.00,30.4,27.1,00.0,39.2,32.0,13.6,0000.0,0011.15,0004.83,0004.33
2022-10-15 18:53:00,,0829.0,5.01,0.00,30.3,27.5,00.0,39.2,31.9,13.8,0000.0,0011.26,0004.85,0004.34
2022-10-15 18:54:00,,0829.0,4.99,0.00,30.3,27.8,00.0,39.2,31.9,13.8,0000.0,0010.84,0004.87,0004.34
2022-10-15 18:55:00,,0829.0,4.99,0.00,30.2,28.0,00.0,39.1,31.9,13.8,0000.0,0009.79,0004.87,0004.34
2022-10-15 18:56:00,,0829.1,5.02,0.00,30.2,28.3,00.0,39.1,31.9,13.9,0000.0,0009.52,0004.91,0004.33
2022-10-15 18:57:00,,0829.0,4.99,0.00,30.2,28.4,00.0,39.1,31.9,14.0,0000.0,0009.68,0004.95,0004.33
2022-10-15 18:58:00,,0829.1,5.00,0.00,30.2,28.6,00.0,39.1,31.9,13.9,0000.0,0009.89,0004.94,0004.34
2022-10-15 18:59:00,,0829.1,4.99,0.00,30.2,28.7,00.0,39.1,32.0,13.9,0000.0,0009.80,0004.92,0004.33
